THORAD AGENA D DEB, 4643

Orbit data source: Space-Track

THORAD AGENA D DEB, 4643 is space debris in SSO originally from a launch on Wed, 08 Apr 1970 UTC launched from the Air Force Western Test Range (AFWTR). Debris objects in space refer to the collection of defunct objects orbiting the Earth. Examples of debris include non-operational satellites, rocket bodies, and fragments generated from explosions, collisions, or faulty payload assembly.

Loading next visibility...
THORAD AGENA D DEB details
Identifier
4643, 1970-025AB
Orbit
SSO
Last TLE update17 hours ago
Origin
Flag of USGSFC (US)
ManufacturerUnknown
MissionSpacecraft
Bus & MotorUnknown
MassUnknown
Launch date (UTC)
1970-04-08 (55 years ago)
Launch vehicleUnknown
Launch site
Air Force Western Test Range (AFWTR)
Object type
Payload
Rocket body
Debris
Shape & HBRUnknown
Radar Cross SectionSmall (<0.1 m²)

Expand to show TLE details & history

TLE from 17 hours ago
0 THORAD AGENA D DEB
1 04643U 70025AB  25023.86423706  .00000289  00000-0  48001-3 0  9994
2 04643  99.4509 250.7513 0011411  67.3465 358.7402 13.55006562702828
Epoch: 2025-01-23T20:44Z
Definitive object data (Epoch: 2025-01-23T20:44:30.081Z)
Latitude64.47432°
Longitude155.8988°
Altitude1,056.458 km
Speed7.334 km/s
True Right ascension15h 21m 50s
True Declination64° 20' 45"
Sunlit
Object was in daylight at TLE epoch
Visualization TLE readout
Latitude-76.00915°
Longitude-141.47473°
Altitude1,088.248 km
Speed7.304 km/s
Apparent Right ascension01h 34m 07s
Apparent Declination-68° 06' 32"
Sunlit
Object is in daylight
Visualization observer readout
Local Sidereal Time15:00:51
Azimuth164.278° S
Elevation-59.443°
Doppler factor1
Orbital elements
Apogee altitude1,059.655 km
Perigee altitude1,042.7 km
Semi-major axis7,429.314 km
Eccentricity0.0011411
Inclination99.4509°
RAAN250.7513°
Arg. of periapsis67.3465°
True anomaly358.73732°
Mean anomaly358.7402°
Eccentric anomaly358.73876°
Mean motion3.38938 °/min
BSTAR0.00048001
Orbital period106.21 mins
Loading maneuver chart data...

THORAD AGENA D DEB Visibility forecast

Observer location: undefined°, undefined

Span
Click to sort rows by Start time (UTC) header in descending order
Start Az.
Max El. time (UTC)
Max El. Az.
Max El.
End time (UTC)
End Az.
11 mins2025-01-24 14:15:47.709Z137.452° SSE2025-01-24 14:20:47.709Z72.089° E36.798°2025-01-24 14:26:47.709Z357.432° N
9 mins2025-01-24 16:01:47.709Z216.61° SW2025-01-24 16:05:47.709Z263.548° W24.548°2025-01-24 16:10:47.709Z319.072° NNW
10 mins2025-01-25 03:09:47.709Z37.283° NE2025-01-25 03:13:47.709Z88.35° E32.295°2025-01-25 03:19:47.709Z164.431° S
9 mins2025-01-25 04:54:47.709Z348.371° N2025-01-25 04:58:47.709Z296.864° NW29.418°2025-01-25 05:03:47.709Z236.569° WSW
6 mins2025-01-25 13:21:47.709Z89.207° E2025-01-25 13:24:47.709Z56.386° ENE17.964°2025-01-25 13:27:47.709Z24.907° NE
|